#timestamp,LO_Frequency,Hit,StdDev 
1655701215.6,286046998.5,N
1655701235.5,286046998.2,N
1655701255.3,286046998.6,N
1655701275.1,286046999.3,N
1655701295.9,286046998.4,N
1655701315.7,286047000.8,N
1655701335.6,286047002.7,N
1655701355.4,286047000.1,N
1655701375.2,286046999.9,N
1655701395.1,286047000.4,N
1655701396.0,286047000.4,N
1655701415.8,286047000.4,N
1655701435.6,286046998.4,N
1655701455.5,286046999.1,N
1655701475.3,286046998.4,N
1655701495.2,286046997.3,N
1655701515.9,286046997.5,N
1655701535.7,286046997.3,N
1655701555.6,286046997.4,N
1655701575.4,286046997.6,N
1655701595.2,286046997.0,N
1655701615.1,286046995.6,Y
1655701616.0,286046995.6,P
1655701635.8,286046997.4,N
1655701655.7,286046994.9,P
1655701675.5,286046997.6,N
1655701695.3,286046995.3,Y
1655701715.2,286046998.8,P
1655701735.0,286046998.9,N
1655701735.9,286046998.9,N
1655701755.8,286046999.0,N
1655701775.6,286046999.0,N
1655701795.4,286046999.6,N
1655701815.3,286046996.9,Y
1655701835.1,286047000.6,P
1655701855.9,286047002.3,N
1655701875.7,286047001.6,N
1655701895.5,286047003.7,N
1655701915.4,286047005.9,Y
1655701935.2,286047003.8,P
1655701955.1,286047003.9,P
1655701956.0,286047003.9,P
1655701975.8,286047004.2,Y
1655701995.6,286047000.7,P
1655702015.5,286047000.7,N
1655702035.3,286047000.9,N
1655702055.2,286047000.2,N
1655702075.9,286047000.4,N
1655702095.7,286047000.9,N
1655702115.6,286047001.0,N
1655702135.4,286047001.2,N
1655702155.2,286047000.9,N
1655702175.1,286047000.5,N
1655702176.0,286047000.5,N
1655702195.8,286047000.1,N
1655702215.7,286047000.5,N
1655702235.5,286047000.6,N
1655702255.3,286047000.2,N
1655702275.2,286047000.2,N
1655702295.0,286047000.3,N
1655702295.9,286047000.3,N
1655702315.8,286047002.7,Y
1655702335.6,286047001.0,P
1655702355.4,286047000.3,N
1655702375.3,286047000.7,N
1655702425.1,286047000.5,E
1655702435.1,286047000.2,N
1655702436.0,286047000.2,P
1655702455.8,286046999.9,P
1655702475.6,286047000.9,Y
1655702495.5,286047000.3,P
1655702515.3,286047000.9,P
1655702535.2,286047000.9,N
1655702555.9,286047000.9,N
1655702575.7,286047000.5,N
1655702595.6,286047000.3,N
1655702615.4,286047000.5,N
1655702635.3,286047001.1,Y
1655702655.1,286046998.1,P
1655702656.0,286046998.1,N
1655702675.8,286047001.1,N
1655702695.7,286047001.0,N
1655702715.5,286047000.6,N
1655702735.3,286047000.0,N
1655702755.2,286047000.0,N
1655702775.0,286047000.0,N
1655702775.9,286047000.0,N
1655702795.8,286047000.5,N
1655702815.6,286046999.8,N
1655702835.4,286047000.3,N
1655702855.3,286047001.1,N
1655702875.1,286047000.4,N
1655702895.9,286047000.3,N
1655702915.7,286047000.3,N
1655702935.5,286047000.3,N
1655702955.4,286047002.8,Y
1655702975.2,286046999.9,P
1655702995.1,286047000.5,P
1655702996.0,286047000.5,N
1655703015.8,286047002.2,Y
1655703035.6,286047002.2,P
1655703055.5,286047002.2,N
1655703075.3,286047002.1,N
1655703095.1,286046999.8,N
1655703115.9,286046999.7,N
1655703135.7,286046999.7,N
1655703155.6,286047000.2,N
1655703175.4,286046999.7,N
1655703195.2,286046999.7,N
1655703215.1,286047002.5,N
1655703216.0,286047002.5,N
1655703235.8,286047002.4,N
1655703255.6,286047000.3,N
1655703275.5,286047002.5,N
1655703295.3,286047002.3,N
1655703315.2,286047002.0,N
1655703335.9,286047001.6,N
1655703355.7,286047001.7,N
1655703375.6,286046999.7,N
1655703395.4,286047002.3,N
1655703415.5,286047002.3,N
1655703435.3,286046999.7,N
1655703455.2,286047002.1,N
1655703475.0,286047002.2,N
1655703475.9,286047002.2,N
1655703495.7,286047002.4,N
1655703515.6,286047002.3,N
1655703535.4,286047002.1,N
1655703555.3,286046999.9,N
1655703575.1,286047000.2,N
1655703595.8,286047001.2,N
1655703615.7,286047000.0,N
1655703635.5,286046999.7,N
1655703655.4,286047000.1,N
1655703675.2,286047002.1,N
1655703695.0,286047002.3,N
1655703695.9,286047002.3,N
1655703715.8,286047002.4,N
1655703735.6,286047002.6,N
1655703755.4,286046999.7,N
1655703775.3,286047002.3,N
1655703795.1,286047002.8,N
1655703815.9,286047000.2,N
1655703835.7,286047002.4,N
1655703855.5,286047002.4,N
1655703875.4,286047002.3,N
1655703895.2,286046999.8,N
1655703915.0,286047002.7,N
1655703915.9,286047002.7,N
1655703935.8,286046999.7,N
1655703955.6,286047000.0,N
1655703975.5,286047002.2,N
1655703995.3,286047002.6,N
1655704015.1,286047002.7,N
1655704035.9,286047002.8,N
1655704055.7,286047000.1,N
1655704075.6,286047000.4,N
1655704095.4,286047002.4,N
1655704115.2,286047002.3,N
1655704135.1,286047002.4,N
1655704136.0,286047002.4,N
1655704155.8,286046999.7,N
1655704175.7,286046999.9,N
1655704195.5,286047000.5,N
1655704215.3,286047000.4,N
1655704235.2,286047000.3,N
1655704255.0,286047000.5,N
1655704255.9,286047000.5,N
1655704275.8,286047000.3,N
1655704295.6,286047000.0,N
1655704315.4,286047000.3,N
1655704335.3,286046999.8,N
1655704355.1,286047001.0,N
1655704375.8,286046999.9,N
1655704395.7,286047000.2,N
1655704415.5,286047002.5,N
1655704435.4,286047004.4,Y
1655704455.2,286047001.6,P
1655704475.0,286047002.0,P
1655704475.9,286047002.0,P
1655704495.8,286047002.8,Y
1655704515.6,286047001.2,P
1655704535.4,286046998.5,P
1655704555.3,286047001.0,N
1655704575.1,286047000.4,N
1655704595.9,286047000.6,N
1655704615.7,286046999.9,N
1655704635.5,286047001.1,N
1655704655.4,286047001.2,N
1655704675.2,286046998.1,N
1655704695.0,286046998.4,N
1655704696.0,286046998.4,N
1655704715.8,286046998.8,N
1655704735.6,286046998.6,N
1655704755.5,286047000.9,N
1655704775.3,286047000.3,N
1655704795.1,286047000.0,N
